Regional Weather Roundup
Issued by NWS Sioux Falls, SD

Home | Current Version | Previous Version | Text Only | Print | Product List | Glossary Off
Versions: 1 2 3 4 5 6 7 8 9 10 11 12 13 14 15 16 17 18 19 20 21 22 23 24 25 26 27 28 29 30 31 32 33 34 35 36 37 38 39 40 41 42 43 44 45 46 47 48 49 50

000
ASUS43 KFSD 240902
RWRFSD

WEATHER ROUNDUP FOR SE SOUTH DAKOTA/SW MINNESOTA/NW IOWA
NATIONAL WEATHER SERVICE SIOUX FALLS SD
400 AM CDT SUN SEP 24 2017

NOTE: "FAIR" INDICATES FEW OR NO CLOUDS BELOW 12,000 FEET WITH NO
SIGNIFICANT WEATHER AND OR OBSTRUCTIONS TO VISIBILITY.


SDZ038>040-050-052>070-241000-
SOUTHEAST SOUTH DAKOTA

CITY           SKY/WX    TMP DP  RH WIND       PRES   REMARKS
BROOKINGS      MOCLDY    60  58  92 S7        29.89R
CHAMBERLAIN    RAIN      55  55 100 NW5       29.87S
HURON          LGT RAIN  55  55 100 NE3       29.87F
MADISON        CLOUDY    57  57 100 CALM      29.89S FOG
MITCHELL       CLOUDY    57  55  93 N5        29.88F
SIOUX FALLS    PTCLDY    60  60 100 E5        29.88S
WINNER         LGT RAIN  52  51  97 NW7       29.89F
YANKTON        CLOUDY    58  57  97 CALM      29.87S
$$

MNZ071-072-080-081-089-090-097-098-241000-
SOUTHWEST MINNESOTA

CITY           SKY/WX    TMP DP  RH WIND       PRES   REMARKS
FAIRMONT       CLEAR     68  64  87 S7        29.94S
JACKSON        PTCLDY    68  61  77 CALM      29.94S
LUVERNE        CLEAR     61  59  94 CALM      29.90S
MARSHALL       FOG       58  57  97 SE8       29.91F VSB 1/4
MONTEVIDEO     FOG       61  61 100 SE5       29.89F VSB 3/4
PIPESTONE      CLEAR     59  57  94 SE8       29.90S
REDWOOD FALLS  FOG       61  60  97 SE3       29.91F VSB 1/4
TRACY          FOG       58  58 100 CALM      29.92S VSB 1/4
WORTHINGTON    PTCLDY    59  59 100 CALM      29.93F FOG
$$

IAZ001>003-012>014-020>022-031-032-NEZ013-014-SDZ071-241000-
NORTHWEST IOWA

CITY           SKY/WX    TMP DP  RH WIND       PRES   REMARKS
DENISON        CLEAR     72  66  83 S10       29.94S
ESTHERVILLE    CLEAR     62  62 100 S6        29.93F
LE MARS        CLEAR     64  64 100 S5        29.90R
ORANGE CITY    CLEAR     70  66  88 S7        29.91S
SHELDON        CLEAR     70  64  83 S8G15     29.89S
SIOUX CITY     CLEAR     60  59  96 E5        29.89S
SPENCER        PTCLDY    67  63  87 S6        29.93S
STORM LAKE     CLEAR     66  64  94 S7        29.94S
$$

ABBREVIATIONS USED IN REMARKS
   TC - TEMPERATURE IN CELSIUS
  WCI - WIND CHILL INDEX
   HX - HEAT INDEX
  VSB - VISIBILITY




USA.gov is the U.S. government's official web portal to all federal, state and local government web resources and services.